This demonstration page uses our WeatherBlox Daily Observations layout. Learn more.

Left ArrowRight Arrow

38.88101, -77.10428

Hourly Observations for July 27, 2021

Temp ( °F °C ) Dew Point ( °F °C ) Humidity (%) Winds ( mph kmh ) Pressure ( in mb ) Visibility ( mi km ) Precip ( " mm )
12:52 am 00:52 Partly Cloudy 75 23.9 69 20.6 82 82 N N/A 29.97 1015 10 16 N/A
1:52 am 01:52 Partly Cloudy 75 23.9 69 20.6 82 82 N N/A 29.96 1015 10 16 N/A
2:52 am 02:52 Mostly Cloudy 76 24.4 69 20.6 79 79 NNW 3 6 29.95 1014 10 16 N/A
3:52 am 03:52 Mostly Cloudy 73 22.8 69 20.6 87 87 SSW 3 6 29.95 1014 10 16 N/A
4:52 am 04:52 Mostly Cloudy 73 22.8 69 20.6 87 87 SSW 5 7 29.96 1015 10 16 N/A
5:52 am 05:52 Partly Cloudy 73 22.8 69 20.6 87 87 N N/A 29.98 1015 10 16 N/A
6:52 am 06:52 Partly Cloudy 73 22.8 70 21.1 90 90 S 6 9 29.99 1016 10 16 N/A
7:52 am 07:52 Mostly Sunny 76 24.4 70 21.1 82 82 N N/A 29.99 1016 10 16 N/A
8:52 am 08:52 Mostly Sunny 78 25.6 71 21.7 79 79 SSE 5 7 29.99 1016 10 16 N/A
9:52 am 09:52 Mostly Sunny 81 27.2 72 22.2 74 74 S 7 11 29.99 1016 10 16 N/A
10:52 am 10:52 Sunny 85 29.4 70 21.1 61 61 N N/A 30.00 1016 10 16 N/A
11:52 am 11:52 Mostly Sunny 88 31.1 67 19.4 50 50 ESE 3 6 30.00 1016 10 16 N/A
12:52 pm 12:52 Partly Cloudy 90 32.2 68 20 48 48 SSE 6 9 29.98 1015 10 16 N/A
1:52 pm 13:52 Partly Cloudy 92 33.3 65 18.3 41 41 SSE 5 7 29.97 1015 10 16 N/A
2:52 pm 14:52 Mostly Sunny 94 34.4 61 16.1 33 33 NE 5 7 29.96 1015 10 16 N/A
3:52 pm 15:52 Partly Cloudy 95 35 62 16.7 34 34 VRB 6 9 29.95 1014 10 16 N/A
4:52 pm 16:52 Mostly Sunny 94 34.4 62 16.7 35 35 N 9 15 29.93 1014 10 16 N/A
5:52 pm 17:52 Mostly Cloudy 94 34.4 63 17.2 36 36 NNW 7 11 29.93 1014 10 16 N/A
6:52 pm 18:52 Partly Cloudy 91 32.8 59 15 34 34 NW 12 19 29.93 1013 10 16 N/A
7:52 pm 19:52 Mostly Sunny 88 31.1 58 14.4 36 36 NNW 7 11 29.93 1014 10 16 N/A
8:52 pm 20:52 Mostly Clear 87 30.6 55 12.8 34 34 NW 7 11 29.94 1014 10 16 N/A
9:52 pm 21:52 Mostly Clear 84 28.9 58 14.4 41 41 N N/A 29.97 1015 10 16 N/A
10:52 pm 22:52 Mostly Clear 82 27.8 70 21.1 67 67 S 3 6 29.97 1015 10 16 N/A
11:52 pm 23:52 Clear 80 26.7 63 17.2 56 56 N N/A 29.97 1015 10 16 N/A

Powered by AerisWeather